When you browse on this site, cookies collect data to enhance your experience and personalize the content and advertising you see.
Visit our Privacy Policy to learn more. By continuing to use the site, you agree to this use of cookies and data.
  • In Portugal
  • List of Countries
  • For 7 days
  • Water Temperature
  • Satellite Maps
  • Weather Map
  • Weather Widgets
  • user-avatar
    Login

    Hourly Weather Velikaya Novoselka

    Today, 23 May, Thursday

    Time Temperature Precipitation Wind Pressure Humidity
    00:00 +13°C° 0 mm 3 mps 747 mmHg 91%
    01:00 +13°C° 0 mm 3 mps 747 mmHg 91%
    02:00 +12°C° 0 mm 3 mps 747 mmHg 93%
    03:00 +12°C° 0 mm 3 mps 747 mmHg 92%
    04:00 +12°C° 0 mm 3 mps 747 mmHg 91%
    05:00 +13°C° 0 mm 3 mps 747 mmHg 91%
    06:00 +16°C° 0.2 mm 3 mps 747 mmHg 85%
    07:00 +17°C° 0.2 mm 3 mps 747 mmHg 79%
    08:00 +19°C° 0.2 mm 4 mps 747 mmHg 72%
    09:00 +20°C° 0.8 mm 4 mps 747 mmHg 69%
    10:00 +21°C° 0.8 mm 4 mps 746 mmHg 65%
    11:00 +22°C° 0.8 mm 5 mps 746 mmHg 62%
    12:00 +22°C° 0.7 mm 5 mps 746 mmHg 62%
    13:00 +22°C° 0.7 mm 5 mps 746 mmHg 61%
    14:00 +23°C° 0.7 mm 5 mps 746 mmHg 61%
    15:00 +22°C° 0.5 mm 5 mps 746 mmHg 64%
    16:00 +22°C° 0.5 mm 4 mps 746 mmHg 67%
    17:00 +22°C° 0.5 mm 4 mps 746 mmHg 69%
    18:00 +20°C° 0.1 mm 3 mps 746 mmHg 74%
    19:00 +19°C° 0.1 mm 3 mps 746 mmHg 79%
    20:00 +17°C° 0.1 mm 2 mps 746 mmHg 83%
    21:00 +17°C° 0 mm 2 mps 747 mmHg 85%
    22:00 +16°C° 0 mm 2 mps 747 mmHg 86%
    23:00 +16°C° 0 mm 2 mps 747 mmHg 88%

    Tomorrow, 24 May, Friday

    Time Temperature Precipitation Wind Pressure Humidity
    00:00 +15°C° 0 mm 2 mps 747 mmHg 89%
    01:00 +15°C° 0 mm 2 mps 747 mmHg 89%
    02:00 +15°C° 0 mm 2 mps 747 mmHg 90%
    03:00 +15°C° 0 mm 2 mps 747 mmHg 90%
    04:00 +15°C° 0 mm 2 mps 747 mmHg 89%
    05:00 +16°C° 0 mm 1 mps 747 mmHg 89%
    06:00 +19°C° 0 mm 1 mps 747 mmHg 82%
    07:00 +20°C° 0 mm 1 mps 748 mmHg 76%
    08:00 +21°C° 0 mm 2 mps 748 mmHg 69%
    09:00 +23°C° 0.5 mm 2 mps 748 mmHg 65%
    10:00 +24°C° 0.5 mm 2 mps 748 mmHg 60%
    11:00 +25°C° 0.5 mm 2 mps 748 mmHg 56%
    12:00 +25°C° 0.8 mm 2 mps 747 mmHg 56%
    13:00 +26°C° 0.8 mm 3 mps 747 mmHg 56%
    14:00 +26°C° 0.8 mm 3 mps 747 mmHg 57%
    15:00 +26°C° 0.3 mm 2 mps 747 mmHg 58%
    16:00 +25°C° 0.3 mm 2 mps 747 mmHg 59%
    17:00 +25°C° 0.3 mm 2 mps 747 mmHg 60%
    18:00 +23°C° 0.5 mm 2 mps 747 mmHg 67%
    19:00 +20°C° 0.5 mm 2 mps 747 mmHg 74%
    20:00 +18°C° 0.5 mm 3 mps 747 mmHg 81%
    21:00 +18°C° 0 mm 2 mps 747 mmHg 80%
    22:00 +17°C° 0 mm 2 mps 747 mmHg 80%
    23:00 +16°C° 0 mm 2 mps 747 mmHg 79%

    Day after tomorrow, 25 May, Saturday

    Time Temperature Precipitation Wind Pressure Humidity
    00:00 +16°C° 0 mm 2 mps 747 mmHg 80%
    01:00 +15°C° 0 mm 2 mps 747 mmHg 81%
    02:00 +15°C° 0 mm 2 mps 747 mmHg 82%
    03:00 +15°C° 0 mm 2 mps 747 mmHg 83%
    04:00 +16°C° 0 mm 2 mps 747 mmHg 84%
    05:00 +16°C° 0 mm 1 mps 746 mmHg 84%
    06:00 +18°C° 0 mm 2 mps 747 mmHg 78%
    07:00 +20°C° 0 mm 2 mps 747 mmHg 71%
    08:00 +23°C° 0 mm 2 mps 747 mmHg 64%
    09:00 +24°C° 0.9 mm 2 mps 747 mmHg 62%
    10:00 +24°C° 0.9 mm 2 mps 746 mmHg 59%
    11:00 +25°C° 0.9 mm 2 mps 746 mmHg 56%
    12:00 +25°C° 0 mm 2 mps 746 mmHg 55%
    13:00 +25°C° 0 mm 2 mps 746 mmHg 54%
    14:00 +25°C° 0 mm 1 mps 745 mmHg 53%
    15:00 +24°C° 0.1 mm 2 mps 745 mmHg 59%
    16:00 +24°C° 0.1 mm 2 mps 745 mmHg 65%
    17:00 +23°C° 0.1 mm 2 mps 745 mmHg 71%
    18:00 +21°C° 0.8 mm 2 mps 745 mmHg 76%
    19:00 +19°C° 0.8 mm 2 mps 745 mmHg 81%
    20:00 +18°C° 0.8 mm 2 mps 745 mmHg 86%
    21:00 +18°C° 0.2 mm 2 mps 745 mmHg 87%
    22:00 +18°C° 0.2 mm 3 mps 745 mmHg 88%
    23:00 +17°C° 0.2 mm 3 mps 745 mmHg 90%

    26 May, Sunday

    Time Temperature Precipitation Wind Pressure Humidity
    00:00 +17°C° 0.6 mm 3 mps 745 mmHg 91%
    01:00 +17°C° 0.6 mm 3 mps 745 mmHg 92%
    02:00 +17°C° 0.6 mm 3 mps 745 mmHg 93%
    03:00 +16°C° 0.1 mm 3 mps 745 mmHg 93%
    04:00 +16°C° 0.1 mm 3 mps 745 mmHg 93%
    05:00 +16°C° 0.1 mm 3 mps 746 mmHg 93%
    06:00 +18°C° 0 mm 3 mps 746 mmHg 88%
    07:00 +19°C° 0 mm 4 mps 746 mmHg 83%
    08:00 +20°C° 0 mm 4 mps 746 mmHg 79%
    09:00 +21°C° 0.4 mm 4 mps 746 mmHg 72%
    10:00 +23°C° 0.4 mm 5 mps 746 mmHg 66%
    11:00 +25°C° 0.4 mm 5 mps 746 mmHg 60%
    12:00 +25°C° 0.4 mm 5 mps 746 mmHg 60%
    13:00 +26°C° 0.4 mm 6 mps 746 mmHg 60%
    14:00 +26°C° 0.4 mm 6 mps 746 mmHg 60%
    15:00 +25°C° 0.4 mm 5 mps 746 mmHg 63%
    16:00 +25°C° 0.4 mm 5 mps 746 mmHg 67%
    17:00 +23°C° 0.4 mm 4 mps 747 mmHg 71%
    18:00 +22°C° 0.3 mm 4 mps 747 mmHg 76%
    19:00 +21°C° 0.3 mm 3 mps 747 mmHg 82%
    20:00 +19°C° 0.3 mm 3 mps 748 mmHg 87%
    21:00 +18°C° 0 mm 3 mps 748 mmHg 88%
    22:00 +18°C° 0 mm 3 mps 749 mmHg 90%
    23:00 +17°C° 0 mm 2 mps 749 mmHg 91%

    27 May, Monday

    Time Temperature Precipitation Wind Pressure Humidity
    00:00 +17°C° 0 mm 2 mps 749 mmHg 91%
    01:00 +16°C° 0 mm 2 mps 750 mmHg 91%
    02:00 +16°C° 0 mm 2 mps 750 mmHg 91%
    03:00 +16°C° 0 mm 2 mps 750 mmHg 90%
    04:00 +16°C° 0 mm 2 mps 751 mmHg 88%
    05:00 +17°C° 0 mm 2 mps 751 mmHg 87%
    06:00 +19°C° 0 mm 2 mps 752 mmHg 81%
    07:00 +21°C° 0 mm 3 mps 752 mmHg 75%
    08:00 +24°C° 0 mm 3 mps 752 mmHg 69%
    09:00 +25°C° 0 mm 3 mps 753 mmHg 64%
    10:00 +26°C° 0 mm 3 mps 753 mmHg 59%
    11:00 +27°C° 0 mm 3 mps 753 mmHg 54%
    12:00 +27°C° 0 mm 3 mps 753 mmHg 52%
    13:00 +28°C° 0 mm 3 mps 753 mmHg 51%
    14:00 +28°C° 0 mm 3 mps 753 mmHg 49%
    15:00 +28°C° 0 mm 3 mps 753 mmHg 52%
    16:00 +28°C° 0 mm 3 mps 753 mmHg 55%
    17:00 +28°C° 0 mm 3 mps 753 mmHg 58%
    18:00 +26°C° 0 mm 3 mps 753 mmHg 65%
    19:00 +22°C° 0 mm 3 mps 753 mmHg 73%
    20:00 +20°C° 0 mm 4 mps 753 mmHg 80%
    21:00 +19°C° 0 mm 3 mps 753 mmHg 80%
    22:00 +19°C° 0 mm 3 mps 753 mmHg 79%
    23:00 +18°C° 0 mm 3 mps 754 mmHg 79%

    28 May, Tuesday

    Time Temperature Precipitation Wind Pressure Humidity
    00:00 +17°C° 0 mm 2 mps 754 mmHg 81%
    01:00 +17°C° 0 mm 2 mps 754 mmHg 83%
    02:00 +17°C° 0 mm 2 mps 754 mmHg 86%
    03:00 +17°C° 0 mm 2 mps 754 mmHg 86%
    04:00 +17°C° 0 mm 2 mps 754 mmHg 86%
    05:00 +17°C° 0 mm 2 mps 754 mmHg 87%
    06:00 +19°C° 0 mm 3 mps 754 mmHg 80%
    07:00 +21°C° 0 mm 3 mps 754 mmHg 73%
    08:00 +23°C° 0 mm 4 mps 754 mmHg 67%
    09:00 +25°C° 0 mm 4 mps 754 mmHg 64%
    10:00 +26°C° 0 mm 4 mps 754 mmHg 61%
    11:00 +27°C° 0 mm 5 mps 753 mmHg 58%
    12:00 +28°C° 0 mm 5 mps 753 mmHg 58%
    13:00 +28°C° 0 mm 5 mps 753 mmHg 57%
    14:00 +29°C° 0 mm 5 mps 753 mmHg 57%
    15:00 +28°C° 0 mm 5 mps 752 mmHg 60%
    16:00 +28°C° 0 mm 5 mps 752 mmHg 63%
    17:00 +28°C° 0 mm 4 mps 752 mmHg 65%
    18:00 +26°C° 0 mm 4 mps 752 mmHg 72%
    19:00 +23°C° 0 mm 4 mps 752 mmHg 78%
    20:00 +21°C° 0 mm 3 mps 752 mmHg 85%
    21:00 +21°C° 0 mm 3 mps 752 mmHg 86%
    22:00 +21°C° 0 mm 3 mps 751 mmHg 86%
    23:00 +20°C° 0 mm 3 mps 751 mmHg 87%
    Show more